Regional Weather Roundup
Issued by NWS Grand Forks, ND

Home | Current Version | Previous Version | Graphics & Text | Print | Product List | Glossary On
Versions: 1 2 3 4 5 6 7 8 9 10 11 12 13 14 15 16 17 18 19 20 21 22 23 24 25 26 27 28 29 30 31 32 33 34 35 36 37 38 39 40 41 42 43 44 45 46 47 48 49 50
217
ASUS43 KFGF 091910
RWRFGF
PRAIRIE TO PINES  WEATHER ROUNDUP
NATIONAL WEATHER SERVICE EASTERN NORTH DAKOTA/GRAND FORKS ND
100 PM CST FRI DEC 09 2016

 **SATELLITE DATA USED TO AUGMENT SKY COVER AT AUTOMATED STATIONS**
 *****  WEATHER ACROSS EASTERN NORTH DAKOTA  *****

CITY           SKY/WX    TMP DP  RH WIND       PRES   REMARKS
GRAND FORKS    CLOUDY     2  -7  66 NW12      30.57F WCI -15
GRAND FRKS AFB MOSUNNY    0  -9  65 NW10      30.57F WCI -17
DEVILS LAKE    SUNNY     -5 -12  72 NW13      30.53F WCI -24
FARGO          PTSUNNY    5  -3  69 NW9       30.57F WCI  -9
WAHPETON ARPT  CLOUDY     9   1  72 NW9       30.56F WCI  -5
$$

 ***** WEATHER ACROSS CENTRAL AND WESTERN NORTH DAKOTA  *****

CITY           SKY/WX    TMP DP  RH WIND       PRES   REMARKS
BISMARCK       CLOUDY     0  -6  76 NW9       30.56F WCI -15
MINOT          SUNNY     -9 -15  75 NW14      30.55F WCI -30
JAMESTOWN      SUNNY     -2  -8  76 NW12      30.53F WCI -20
MINOT AFB      SUNNY    -11 -16  75 NW13      30.55F WCI -31
GARRISON         N/A     -6 -12  75 NW14      30.52F WCI -26
WILLISTON      SUNNY     -4 -11  72 NE5       30.56F WCI -15
DICKINSON      SUNNY     -9 -13  83 W5        30.44  WCI -20
HETTINGER      MOSUNNY   -2  -6  83 CALM      30.44F
$$

 *****  OTHER AIRPORT OBSERVATIONS IN OUR AREA  *****

CITY           SKY/WX    TMP DP  RH WIND       PRES   REMARKS
WALHALLA         N/A      0   0 100 W6        30.56F WCI -12
GRAFTON AIRPOR FAIR       0  -9  65 W9        30.59F WCI -16
VALLEY CITY AR FAIR       0  -4  85 NW12      30.55F WCI -18
CANDO          MOCLDY    -6 -11  77 NW12      30.55F WCI -24
CAVALIER APRT    N/A      0  -9  65 W7        30.57F WCI -13
GWINNER        FAIR       9   1  72 NW12      30.55F WCI  -6
SHEYENNE NWR     N/A      6  -5  60 N8        29.95S WCI  -7
ROLLA          CLOUDY    -8 -13  77 NW13      30.49S WCI -28
 ***** THE ABOVE OBSERVATIONS ARE NON NWS ARE NOT QUALITY
       CONTROLLED AND MAY MIS-REPORT RAIN FOR SNOW...
$$

  *****  WEATHER ACROSS NORTHERN MINNESOTA  *****

CITY           SKY/WX    TMP DP  RH WIND       PRES   REMARKS
FLAG ISLAND    CLOUDY     3  -2  78 W10       30.47F WCI -12
WARROAD        CLOUDY     3  -4  72 W10       30.50F WCI -12
ROSEAU         CLOUDY     3  -4  72 W9        30.51F WCI -11
HALLOCK        CLOUDY     1  -4  78 NW8       30.56F WCI -12
THF RVR FALLS  LGT SNOW   6   1  80 NW12      30.53F WCI  -9
BAUDETTE       CLOUDY     4  -6  63 W10       30.47S WCI -11
WASKISH        PTSUNNY    9   1  72 NW7       30.47F WCI  -3
CROOKSTON      CLOUDY     7   0  72 NW7       30.56F WCI  -5
GREENBUSH NDAW   N/A      1  -2  85 W9          N/A  WCI -14
$$
  *****  WEATHER ACROSS CENTRAL AND WEST MINNESOTA  *****

CITY           SKY/WX    TMP DP  RH WIND       PRES   REMARKS
FOSSTON        CLOUDY     7   0  72 W10       30.50F WCI  -8
BEMIDJI        CLOUDY     7  -2  67 W8        30.46F HAZE    WCI  -6
PARK RAPIDS    LGT SNOW   9   0  67 W7        30.46F WCI  -2
ELBOW LAKE     CLOUDY     4   0  80 NW3       30.53F HAZE
WADENA         CLOUDY     7   0  72 W7        30.48F WCI  -5
DETROIT LAKES  CLOUDY     7   1  78 NW10      30.50F WCI  -8
MOORHEAD       SUNNY      3  -2  78 NW9       30.56F WCI -11
FERGUS FALLS   CLOUDY     5   0  78 NW7       30.58F HAZE    WCI  -7
MORRIS MN      SUNNY      7   0  72 W5        30.53F WCI  -2
STAPLES        CLOUDY     9   1  72 W8        30.48F HAZE    WCI  -4
$$
  *****  WEATHER ELSEWHERE ACROSS MINNESOTA  *****

CITY           SKY/WX    TMP DP  RH WIND       PRES   REMARKS
DULUTH         FLURRIES  10   2  69 W15       30.42F WCI  -7
INTRNTL FALLS  LGT SNOW   6  -2  69 W7        30.45F WCI  -6
ELY            CLOUDY     7   0  72 W10       30.40S WCI  -8
CLOQUET        CLOUDY    10   1  67 W6        30.44F HAZE    WCI   1
WHEATON        CLOUDY     9   1  72 W10       30.58F HAZE    WCI  -6
BRAINERD       FLURRIES  10   2  69 W10       30.48F WCI  -4
HIBBING        MIX PCPN   5  -4  66 W8        30.44F WCI  -8
ALEXANDRIA     CLOUDY     7   1  76 W7        30.49F WCI  -5
SAINT CLOUD    LGT SNOW  14   7  73 W8        30.50F WCI   3
MINNEAPOLIS    PTSUNNY   17   7  64 W9        30.52F WCI   6
$$

  *****  WEATHER ACROSS SOUTH DAKOTA  *****

CITY           SKY/WX    TMP DP  RH WIND       PRES   REMARKS
SIOUX FALLS    CLOUDY    14   5  67 CALM      30.51F
BROOKINGS      FLURRIES   7   2  80 NW6       30.49F WCI  -3
WATERTOWN      CLOUDY     3  -2  79 NW10      30.48F WCI -12
HURON          LGT SNOW   6  -1  73 N6        30.56F WCI  -4
SISSETON         N/A      7  -1  70 N14       30.54F WCI -10
ABERDEEN       CLOUDY     8  -4  58 N7        30.56F WCI  -3
MITCHELL       LGT SNOW   9   3  77 NE6       30.55F WCI  -1
PIERRE         LGT SNOW   5  -1  76 NE9       30.48F VSB 1   WCI  -9
MOBRIDGE       CLOUDY     4  -4  69 N8        30.50F HAZE    WCI  -9
RAPID CITY     LGT SNOW   3  -3  76 N9        30.34F WCI -12
$$

  *****  SOME WEATHER IN NEARBY STATES *****

CITY           SKY/WX    TMP DP  RH WIND       PRES   REMARKS
GLASGOW MT     SUNNY     -1  -6  79 SE12      30.48F WCI -18
GREAT FALLS MT CLOUDY     0  -7  72 VRB3      30.24F
CHEYENNE WY    SUNNY     44  24  45 W21G30    30.05S
SCOTTSBLUFF NE SUNNY     26  11  52 N9        30.17F WCI  17
OMAHA NE       CLOUDY    19   8  62 S5        30.56F WCI  12
DES MOINES IA  CLOUDY    22  10  60 VRB6      30.56F WCI  14
DAVENPORT IA   MOSUNNY   22  13  68 NW7       30.54F WCI  13
CHICAGO IL     FLURRIES  25  13  60 W12       30.49F WCI  14
EAU CLAIRE WI  LGT SNOW  18  12  77 W8        30.49F WCI   8
LA CROSSE WI   MOSUNNY   25  10  53 W7        30.52F WCI  17
$$

  *****  SOME NATIONAL WEATHER *****

CITY           SKY/WX    TMP DP  RH WIND       PRES   REMARKS
LA GUARDIA NY  MOSUNNY   41  17  38 NW26G35   30.09R
RALEIGH NC     SUNNY     40  12  32 VRB6      30.38S
ATLANTA GA     SUNNY     43  16  33 NW15      30.41F
NEW ORLEANS LA MOSUNNY   46  25  43 N9        30.48F
OKLAHOMA CITY  CLOUDY    30  11  45 SE9       30.52F WCI  22
ALBUQUERQUE NM PTSUNNY   38  26  62 SW8       30.34F
SALT LAKE CITY CLOUDY    38  31  76 CALM      30.19F
LOS ANGELES CA PTSUNNY   61  50  67 E6        30.26F
BOISE ID       MIX PCPN  29  26  89 NW6       30.14S FOG     WCI  23
SEATTLE WA     LGT RAIN  33  31  92 SE15      29.98S WCI  23
$$

*** WEATHER ACROSS MANITOBA...SASKATCHEWAN AND ONTARIO ***
                ***ONTARIO***

CITY           SKY/WX    TMP DP  RH WIND       PRES   REMARKS
GERALDTON      FLURRIES   9   1  72 NW3       30.32F
THUNDER BAY    FLURRIES  16   5  62 NW7G18    30.40F WCI   6
SIOUX LOOKOUT  FLURRIES   7   0  72 NW9       30.37F WCI  -7
TORONTO        PTSUNNY   28  12  50 W21       30.22R WCI  15
BIG TROUT LK   FLURRIES   0  -6  78 NW8       30.39F WCI -15
PICKLE LAKE    FLURRIES   1  -6  71 W6        30.34F WCI -10
DRYDEN         FLURRIES   7   1  78 NW6       30.36F WCI  -3
KENORA         LGT SNOW   5   0  78 W7        30.42S WCI  -7
$$
                *** MANITOBA***

CITY           SKY/WX    TMP DP  RH WIND       PRES   REMARKS
BRANDON        FLURRIES  -2 -13  60 NW12      30.54F WCI -20
DAUPHIN        MOSUNNY   -6 -13  71 W8        30.59F WCI -21
ISLAND LAKE    NOT AVBL
PILOT MOUND      N/A     -9 -15  77 NW10        N/A  WCI -28
THE PAS        FLURRIES  -6 -11  77 NW6       30.60F WCI -18
THOMPSON       FLURRIES  -8 -13  77 W6        30.57F WCI -21
WINNIPEG       FLURRIES   1  -4  78 NW13      30.55F WCI -16
LYNN LAKE      CLOUDY    -8 -11  84 NW5       30.56F WCI -19
CHURCHILL      PTCLDY    -6 -11  77 NW18G25   30.47F WCI -29
GILLAM         MOSUNNY   -4  -9  77 W9        30.51F WCI -20
$$
                ***SASKATCHEWAN***

CITY           SKY/WX    TMP DP  RH WIND       PRES   REMARKS
ESTEVAN        MOSUNNY  -15 -20  76 W8        30.55F WCI -32
KINDERSLEY     MOSUNNY   -6 -15  65 VRB2      30.48F
LLOYDMINSTER   CRYSTALS  -9 -15  77 S5        30.50F WCI -21
PRINCE ALBERT  SUNNY     -8 -15  71 NW3       30.60F
REGINA         MOSUNNY   -8 -13  77 NW6       30.55F FOG     WCI -21
YORKTON        SUNNY     -8 -15  71 NW7       30.54F WCI -22
N. BATTLEFORD  SUNNY    -13 -18  77 VRB2      30.59F
LA RONGE       MOSUNNY  -11 -18  70 W5        30.63F WCI -23
SASKATOON      CRYSTALS  -8 -15  71 W3        30.60F
SWIFT CURRENT  MOSUNNY   -6  -9  84 VRB2      30.42F
$$
NOTE: THESE ARE AUTOMATED STATIONS WITH LIMITED QUALITY CONTROL
      "FAIR" INDICATES FEW OR NO CLOUDS BELOW 12,000 FEET WITH NO
      SIGNIFICANT WEATHER AND/OR OBSTRUCTIONS TO VISIBILITY.
      SKY/WX - SKY CONDITION AND SIGNIFICANT WEATHER.
      TMP - AIR TEMPERATURE.    DP   - DEWPOINT TEMPERATURE.
      RH  - RELATIVE HUMIDITY.  PRES - PRESSURE.
      HX  - HEAT INDEX.         WCI  - WIND CHILL INDEX.
$




USA.gov is the U.S. government's official web portal to all federal, state and local government web resources and services.